Location: Fours
(44.3167°N, 6.7000°E)
Time: 04:09:53
(UTC+00:00)

Cosmos 1939 Rocket - Pass Details

Date: 30 November 2020
Orbit: 532 x 584 km, 97.4° (Epoch: 24 January)

Event Time Altitude Azimuth Distance (km) Brightness Sun altitude
Rises 17:31:30 0° 164° (SSE) 2,669 6.3 -16.7°
Reaches altitude 10° 17:33:36 10° 163° (SSE) 1,787 5.4 -17.0°
Maximum altitude 17:37:27 81° 76° (ENE) 553 2.6 -17.7°
Drops below altitude 10° 17:41:23 10° 350° (N) 1,825 5.4 -18.4°
Sets 17:43:32 0° 349° (N) 2,732 6.4 -18.7°
